Regional Weather Roundup
Issued by NWS

Home | Current Version | Previous Version | Graphics & Text | Print | Product List | Glossary On
Versions: 1 2 3 4 5 6 7 8 9 10 11 12 13 14 15 16 17 18 19 20 21 22 23 24 25 26 27 28 29 30 31 32 33 34 35 36 37 38 39 40 41 42 43 44 45 46 47 48 49 50
000
ASUS43 KDTX 230010
RWRMI
MICHIGAN HOURLY REGIONAL WEATHER ROUNDUP
NATIONAL WEATHER SERVICE DETROIT/PONTIAC MI
800 PM EDT SUN APR 22 2018

NOTE: "FAIR" INDICATES FEW OR NO CLOUDS BELOW 12,000 FEET WITH NO
SIGNIFICANT WEATHER AND/OR OBSTRUCTION TO VISIBILITY.

MIZ047>049-052>055-059>063-066>070-074>076-081>083-230100-
SOUTHEAST LOWER MICHIGAN

CITY           SKY/WX    TMP DP  RH WIND       PRES   REMARKS
ADRIAN         FAIR      53  21  28 SE12      30.31S
6HR MIN TEMP:  53; 6HR MAX TEMP:  60;

ALMA           FAIR      56  31  39 NE9       30.32S
6HR MIN TEMP:  56; 6HR MAX TEMP:  63;

ANN ARBOR      FAIR      56  19  23 E8        30.31S
BAD AXE        FAIR      57  14  18 E6        30.36S
6HR MIN TEMP:  57; 6HR MAX TEMP:  62;

CARO           FAIR      56  19  23 E6        30.33S
DETROIT CITY   FAIR      56  24  29 E10       30.32S
6HR MIN TEMP:  56; 6HR MAX TEMP:  60;

DETROIT        FAIR      58  23  26 E9        30.32S
6HR MIN TEMP:  58; 6HR MAX TEMP:  62;

FLINT          FAIR      57  27  31 E10       30.31F
6HR MIN TEMP:  57; 6HR MAX TEMP:  63;

GROSSE ILE     FAIR      54  25  32 E6        30.30F
6HR MIN TEMP:  54; 6HR MAX TEMP:  61;

HILLSDALE      FAIR      54  23  30 E10       30.29R
HOWELL         FAIR      57  21  24 E7        30.30F
6HR MIN TEMP:  57; 6HR MAX TEMP:  62;


CITY           SKY/WX    TMP DP  RH WIND       PRES   REMARKS
JACKSON        FAIR      57  23  26 E8        30.30R
6HR MIN TEMP:  57; 6HR MAX TEMP:  63;

LAMBERTVILLE   FAIR      53  19  27 E12G17    30.30F
6HR MIN TEMP:  53; 6HR MAX TEMP:  59;

LANSING        FAIR      59  24  26 E8        30.30F
6HR MIN TEMP:  59; 6HR MAX TEMP:  64;

LAPEER         FAIR      56  24  28 E6        30.33S
6HR MIN TEMP:  56; 6HR MAX TEMP:  60;

MASON          FAIR      59  13  16 E5        30.30S
6HR MIN TEMP:  59; 6HR MAX TEMP:  64;

MONROE         FAIR      52  19  28 E8        30.30F
6HR MIN TEMP:  52; 6HR MAX TEMP:  58;

MT. CLEMENS    PTCLDY    55  27  34 E3        30.33F
6HR MIN TEMP:  55; 6HR MAX TEMP:  60;

PONTIAC        MOCLDY    58  24  27 E8        30.30F
6HR MIN TEMP:  57; 6HR MAX TEMP:  61;

PORT HOPE        N/A     41  31  67 SE6       30.36S
6HR MIN TEMP:  41; 6HR MAX TEMP:  48;

PORT HURON     FAIR      48  23  37 NE8       30.36R
TRI CITIES     FAIR      52  33  48 NE10      30.34S
6HR MIN TEMP:  52; 6HR MAX TEMP:  62;

MIDLAND        FAIR      53  30  42 E5        30.33F
6HR MIN TEMP:  53; 6HR MAX TEMP:  60;

TROY           FAIR      59  20  22 E6        30.34S
SAGINAW HB     FAIR      52  32  46 N9        30.33S
$$
MIZ043>046-050>051-056>058-064>065-071>073-077>080-230100-
SOUTHWEST LOWER MICHIGAN

CITY           SKY/WX    TMP DP  RH WIND       PRES   REMARKS
BATTLE CREEK   FAIR      60  20  21 E10       30.28S
6HR MIN TEMP:  59; 6HR MAX TEMP:  64;

BENTON HARBOR  FAIR      57  26  30 MISG      30.26R
6HR MIN TEMP:  57; 6HR MAX TEMP:  66;

BIG RAPIDS     FAIR      58  14  17 SE9       30.30S
6HR MIN TEMP:  58; 6HR MAX TEMP:  63;

COLDWATER      FAIR      56  24  29 SE10G17   30.28S
6HR MIN TEMP:  56; 6HR MAX TEMP:  62;

FREMONT        FAIR      60   5  11 E7        30.28S
6HR MIN TEMP:  60; 6HR MAX TEMP:  65;

HOLLAND        FAIR      61  27  27 E9        30.27F
6HR MIN TEMP:  61; 6HR MAX TEMP:  65;

GRAND RAPIDS   FAIR      59  26  28 E9        30.28F
6HR MIN TEMP:  59; 6HR MAX TEMP:  64;

IONIA          FAIR      59  24  25 NE8       30.28F
6HR MIN TEMP:  59; 6HR MAX TEMP:  63;

KALAMAZOO      FAIR      61  22  22 E8        30.27S
6HR MIN TEMP:  61; 6HR MAX TEMP:  66;

LUDINGTON      FAIR      54  23  30 N7        30.30S
6HR MIN TEMP:  54; 6HR MAX TEMP:  58;

MARSHALL       FAIR      58  19  21 E6        30.28S
6HR MIN TEMP:  58; 6HR MAX TEMP:  63;

MOUNT PLEASANT FAIR      59  25  27 E5        30.31S
6HR MIN TEMP:  59; 6HR MAX TEMP:  64;

MUSKEGON       FAIR      62  24  23 E10       30.28S
6HR MIN TEMP:  61; 6HR MAX TEMP:  68;

SOUTH HAVEN    FAIR      52  34  51 CALM      30.26R
$$
MIZ016>042-230100-
NORTHERN LOWER MICHIGAN

CITY           SKY/WX    TMP DP  RH WIND       PRES   REMARKS
ALPENA         FAIR      46  27  47 E7        30.37S
6HR MIN TEMP:  46; 6HR MAX TEMP:  56;

BEAVER ISLAND  FAIR      49  15  25 E8        30.33S
6HR MIN TEMP:  49; 6HR MAX TEMP:  59;

BELLAIRE       FAIR      57  17  20 N3        30.31S
6HR MIN TEMP:  57; 6HR MAX TEMP:  61;

CADILLAC       FAIR      57  24  28 SE13      30.30R
CHARLEVOIX     FAIR      49  24  36 N5        30.34F
6HR MIN TEMP:  46; 6HR MAX TEMP:  51;

FRANKFORT      FAIR      54  21  27 CALM      30.31S
GAYLORD        FAIR      55  16  21 SE6       30.32R
6HR MIN TEMP:  55; 6HR MAX TEMP:  59;

GRAYLING       FAIR      53  23  30 SE10      30.31R
6HR MIN TEMP:  53; 6HR MAX TEMP:  61;

HARBOR SPRINGS FAIR      55  20  25 E6        30.32S
HOUGHTON LAKE  FAIR      56  17  21 SE12      30.32S
6HR MIN TEMP:  56; 6HR MAX TEMP:  63;

MANISTEE       FAIR      50  22  33 NW6       30.30F
OSCODA         FAIR      44  24  45 CALM      30.37F
6HR MIN TEMP:  44; 6HR MAX TEMP:  54;

PELLSTON       FAIR      54  20  26 E7        30.33S
6HR MIN TEMP:  54; 6HR MAX TEMP:  62;

ROGERS CITY    FAIR      51  20  29 SE7       30.36S
TRAVERSE CITY  FAIR      50  29  44 W5        30.30S
6HR MIN TEMP:  50; 6HR MAX TEMP:  59;

$$
MIZ007>008-015-230100-
EASTERN UPPER MICHIGAN

CITY           SKY/WX    TMP DP  RH WIND       PRES   REMARKS
KINROSS        FAIR      50  19  29 S8        30.33S
6HR MIN TEMP:  50; 6HR MAX TEMP:  60;

MACKINAC ISLAN FAIR      49  20  31 E7        30.33S
6HR MIN TEMP:  49; 6HR MAX TEMP:  55;

NEWBERRY       FAIR      50  15  25 S7        30.32R
6HR MIN TEMP:  49; 6HR MAX TEMP:  54;

S. S. MARIE    FAIR      55  20  25 SE8       30.32S
6HR MIN TEMP:  55; 6HR MAX TEMP:  60;

MUNISING         N/A     56  18  22 S10       30.29R
6HR MIN TEMP:  39; 6HR MAX TEMP:  61;

$$
MIZ004>006-011>014-085-230100-
CENTRAL UPPER MICHIGAN

CITY           SKY/WX    TMP DP  RH WIND       PRES   REMARKS
MANISTIQUE     FAIR      46  10  23 CALM      30.32S
6HR MIN TEMP:  46; 6HR MAX TEMP:  55;

ESCANABA       FAIR      48  18  30 S5        30.32F
6HR MIN TEMP:  48; 6HR MAX TEMP:  53;

SAWYER-GWINN   CLEAR     52  19  28 S12       30.29R
$$
MIZ001>003-009>011-084-230100-
WESTERN UPPER MICHIGAN

CITY           SKY/WX    TMP DP  RH WIND       PRES   REMARKS
IRON MOUNTAIN  FAIR      57  18  21 S13       30.28R
6HR MIN TEMP:  57; 6HR MAX TEMP:  64;

HOUGHTON       FAIR      48  19  31 E5        30.26F
6HR MIN TEMP:  48; 6HR MAX TEMP:  54;

COPPER HARBOR    N/A     51  17  26 SW7       30.26F
6HR MIN TEMP:  51; 6HR MAX TEMP:  58;

IRONWOOD       FAIR      58  24  27 N5        30.25S
6HR MIN TEMP:  56; 6HR MAX TEMP:  62;

$$

ABBREVIATIONS USED IN REMARKS
   TC - TEMPERATURE IN CELSIUS
  WCI - WIND CHILL INDEX
   HX - HEAT INDEX
  VSB - VISIBILITY





USA.gov is the U.S. government's official web portal to all federal, state and local government web resources and services.